Omak, WA

5:10 PM PDT on August 25, 2016 (GMT -0700)
Omak

Weather History for KOMK - March, 2013

Change the Weather History Date:

Wednesday, March 27, 2013

  Actual Average Record
Temperature  
Mean Temperature 47 °F 46 °F  
Max Temperature 63 °F 57 °F 70 °F (2015)
Min Temperature 30 °F 34 °F 18 °F (1935)
Degree Days  
Heating Degree Days 18 19  
Month to date heating degree days 637 654  
Since 1 July heating degree days 5278 5515  
Cooling Degree Days 0 0  
Month to date cooling degree days 0 0  
Year to date cooling degree days 0 0  
Moisture  
Dew Point 29 °F    
Average Humidity 53    
Maximum Humidity 78    
Minimum Humidity 27    
Precipitation  
Precipitation T in 0.04 in 0.59 in (1963)
Month to date precipitation 0.77 1.06  
Year to date precipitation 1.56 4.36  
Sea Level Pressure  
Sea Level Pressure 29.99 in    
Wind  
Wind Speed 6 mph (NW)    
Max Wind Speed 14 mph    
Max Gust Speed 17 mph    
Visibility 10 miles    
Events      
T = Trace of Precipitation, MM = Missing Value Source: NWS Daily Summary

Daily Weather History Graph

Daily Weather History Graph

Search for Another Location

Airport or City:

Trip Planner

Search our weather history database for the weather conditions in past years. The results will help you decide how hot, cold, wet, or windy it might be!

Date:

Astronomy

Mar. 27, 2013 Rise Set
Actual Time 6:45 AM PDT 7:21 PM PDT
Civil Twilight 6:14 AM PDT 7:53 PM PDT
Nautical Twilight 5:36 AM PDT 8:30 PM PDT
Astronomical Twilight 4:57 AM PDT 9:10 PM PDT
Moon 8:18 PM PDT (3/27) 6:35 AM PDT (3/27)
Length of Visible Light 13h 39m
Length of Day
12h 36m
Full, 100% of the Moon is Illuminated
Mar 27
Full
Apr 2
Last Quarter
Apr 10
New
Apr 18
First Quarter
Apr 25
Full

Hourly Weather History & Observations

Time (PDT) Temp. Windchill Dew Point Humidity Pressure Visibility Wind Dir Wind Speed Gust Speed Precip Events Conditions
12:53 AM 35.1 °F 32.2 °F 26.1 °F 70% 29.98 in 10.0 mi WNW 3.5 mph - N/A   Clear
1:53 AM 34.0 °F 28.8 °F 26.1 °F 73% 29.98 in 10.0 mi WNW 5.8 mph - N/A   Clear
2:53 AM 32.0 °F 28.7 °F 26.1 °F 79% 29.98 in 10.0 mi NNW 3.5 mph - N/A   Clear
3:53 AM 33.1 °F 28.7 °F 25.0 °F 72% 29.98 in 10.0 mi NNW 4.6 mph - N/A   Clear
4:53 AM 34.0 °F 26.6 °F 26.1 °F 73% 29.98 in 10.0 mi North 9.2 mph - N/A   Clear
5:53 AM 32.0 °F 25.6 °F 25.0 °F 75% 29.99 in 10.0 mi North 6.9 mph - N/A   Clear
6:53 AM 32.0 °F 28.7 °F 25.0 °F 75% 30.01 in 10.0 mi North 3.5 mph - N/A   Clear
7:53 AM 37.9 °F 32.7 °F 27.0 °F 65% 30.02 in 10.0 mi North 6.9 mph - N/A   Partly Cloudy
8:53 AM 43.0 °F 38.8 °F 27.0 °F 53% 30.02 in 10.0 mi North 6.9 mph - N/A   Partly Cloudy
9:53 AM 46.9 °F - 28.0 °F 48% 30.01 in 10.0 mi North 8.1 mph - N/A   Clear
10:53 AM 53.1 °F - 28.0 °F 38% 30.00 in 10.0 mi NNE 8.1 mph - N/A   Mostly Cloudy
11:53 AM 55.9 °F - 27.0 °F 33% 30.00 in 10.0 mi NE 6.9 mph - N/A   Clear
12:53 PM 57.9 °F - 27.0 °F 31% 29.99 in 10.0 mi ESE 3.5 mph - N/A   Mostly Cloudy
1:53 PM 59.0 °F - 27.0 °F 29% 29.98 in 10.0 mi Variable 4.6 mph - N/A   Partly Cloudy
2:53 PM 59.0 °F - 28.0 °F 31% 29.97 in 10.0 mi Variable 3.5 mph - N/A   Mostly Cloudy
3:53 PM 62.1 °F - 28.9 °F 29% 29.96 in 10.0 mi Variable 6.9 mph - N/A   Mostly Cloudy
4:53 PM 59.0 °F - 28.9 °F 32% 29.96 in 10.0 mi SW 5.8 mph - N/A   Overcast
5:53 PM 59.0 °F - 28.0 °F 31% 29.96 in 10.0 mi South 4.6 mph - N/A   Overcast
6:53 PM 57.9 °F - 28.9 °F 33% 29.96 in 10.0 mi SW 3.5 mph - N/A   Overcast
7:53 PM 50.0 °F - 30.9 °F 48% 29.97 in 10.0 mi SE 5.8 mph - N/A   Mostly Cloudy
8:53 PM 51.1 °F - 35.1 °F 54% 29.99 in 10.0 mi SW 5.8 mph - N/A   Mostly Cloudy
9:53 PM 50.0 °F - 36.0 °F 59% 30.00 in 10.0 mi South 3.5 mph - N/A   Overcast
10:53 PM 48.0 °F - 36.0 °F 63% 30.00 in 10.0 mi South 3.5 mph - 0.00 in   Overcast
11:53 PM 46.9 °F - 36.0 °F 66% 30.01 in 10.0 mi SW 4.6 mph - N/A   Mostly Cloudy